Location: Asheville, NC
(35.6000°N, 82.5500°W)
Time: 20:26:33
(UTC-04:00)

CUTE 1.7 + AOD 2 - Pass Details

Date: 10 March 2018
Orbit: 594 x 613 km, 97.5° (Epoch: 20 June)

Event Time Altitude Azimuth Distance (km) Brightness Sun altitude
Rises 19:17:57 0° 193° (SSW) 2,813 ? -9.9°
Reaches altitude 10° 19:20:22 10° 206° (SSW) 1,917 ? -10.3°
Maximum altitude 19:23:54 27° 264° (W) 1,160 ? -11.1°
Drops below altitude 10° 19:27:28 10° 322° (NW) 1,933 ? -11.8°
Sets 19:29:55 0° 335° (NNW) 2,842 ? -12.3°
